COSMOS 2447 (GLONASS)

Satellite information

Favourite Embed

Satellite Type and Status

PAYLOADIN ORBIT

Key statistics

Satellite COSMOS 2447 (GLONASS) at a glance.

Uptime

6040

Days in orbit

Revolutions

≈ 2.1

Per day

Orbit

MEO

Medium Earth Orbit

Inclination

64.6

Latest

Satellite identification and parameters

Extended collection of information and parameters for COSMOS 2447 (GLONASS).

Object identification

Identified? True

Debris? False

Object name: COSMOS 2447 (GLONASS)

International designator: 2008-067A

Object number (NORAD): 33466

Object ID (CCSDS): 33466

Country: COMMONWEALTH OF INDEPENDENT STATES (CIS)

Current information (Y/N): Y

RCS size: LARGE

Orbital parameters

Period: 675.715 minutes

Inclination: 64.6109 deg

SMA: 25507.569 km

Apoapsis: 19145.256 km

Periapsis: 19113.611 km

RAAN: 81.2472 deg

Eccentricy: 0.0006203

Argument of periapsis: 262.7617 deg

Mean anomaly: 279.1811 deg

Mean motion: 2.1310771 rev/day

Mean motion (dot): -0.00000045 rev/day2

B* drag term: 0.0 1/REarth

Two-line elements (TLE)

Creation date: July 7, 2025, 5:18 a.m.

Reference frame: TEME

Reference center: EARTH

Epoch: July 6, 2025, 4:04 p.m. UTC

TLE line 0: 0 COSMOS 2447 (GLONASS)

TLE line 1: 1 33466U 08067A 25187.66992022 -.00000045 00000-0 00000-0 0 9992

TLE line 2: 2 33466 64.6109 81.2472 0006203 262.7617 279.1811 2.13107710128604

Live tracking on map

Real-time ground track for satellite COSMOS 2447 (GLONASS).

In-orbit conjunctions

There are no conjunctions computed for COSMOS 2447 (GLONASS), at the moment. Check back to stay up to date, as we update our databases every day.

Go to all conjunctions

Associated space launch

GLONASS navigation satellites

COSMOS 2447 (GLONASS) was lifted into orbit during the mission ‘Proton-M | Uragan-M 18 to 20’, on board a Proton-M space rocket.

The launch took place on Dec. 25, 2008, 10:43 a.m. from 81/24 (81P).

For more information about the launch, click the button.

Launch to space Proton-M | Uragan-M 18 to 20
Proton-M | Uragan-M 18 to 20

Agency: N/A

Status: Launch Successful

Launch date: Dec. 25, 2008, 10:43 a.m. UTC

Rocket: Proton-M

Launch pad: 81/24 (81P)

Location: Baikonur Cosmodrome, Republic of Kazakhstan

...

Latest news about this satellite

There are no fresh news available about this satellite. Check back as we update our databases every day.


Newsletter sign-up

Weekly statistics, charts and insights to help you stay on top of the space industry.